Location: Sungai Bunut
(2.6333°N, 113.7333°E)
Time: 11:07:14
(UTC+00:00)

Transit 2A - Pass Details

Date: 07 December 2023
Orbit: 599 x 953 km, 66.7° (Epoch: 01 March)

Event Time Altitude Azimuth Distance (km) Brightness Sun altitude
Rises 05:08:23 0° 180° (S) 3,538 9.8 61.8°
Reaches altitude 10° 05:11:19 10° 169° (S) 2,550 9.2 61.4°
Maximum altitude 05:16:20 29° 111° (ESE) 1,492 7.9 60.8°
Drops below altitude 10° 05:20:59 10° 52° (NE) 2,347 8.4 60.3°
Sets 05:23:33 0° 41° (NE) 3,211 8.9 59.9°
